"Pseudo-MPEC" for P12pEuv

Created 2026 Sep 5 10:35:11 UT using Find_Orb

Click here for an explanation of pseudo-MPECs

 
 Astrometry: 
     P12pEuv*0C2026 09 04.51218101 14 25.017-07 57 23.72   ~94M5 20.44wXNEOCPF51
     P12pEuv 0C2026 09 04.53240901 14 24.793-07 57 26.94   ~94M5 20.76wXNEOCPF51
     P12pEuv 0C2026 09 04.55484801 14 24.544-07 57 30.48   ~94M5 20.58wXNEOCPF51

Station data:
(F51) Pan-STARRS 1, Haleakala  (N20.707234 W156.255910)  US/Hawaii.
   Observers J. Herman, T. Lowe, P. Minguez, A. Schultz, I. Smith. Measurers
   K. Chambers, T. de Boer, J. Fairlamb, H. Gao, M. Huber, C.-C. Lin, E.
   Magnier, Y. Ramanjooloo, R. Wainscoat, R. Weryk. 1.8-m Ritchey-Chrétien +
   CCD.

Orbital elements:  P12pEuv
   Perihelion 2028 Jan 22.564966 +/- 1831 TT = 13:33:33.0 (JD 2461793.064966)
Epoch 2026 Sep  5.0 TT = JDT 2461288.5   Sa: 0.1486              AutoNEOCP
M 354.810579651 +/- 47              (J2000 ecliptic)
n   0.010284939 +/-                 Peri.  288.440530 +/- 80
a  20.94119901 +/-                  Node   115.951254 +/- 54
e   0.67320755 +/- 0.217            Incl.   13.437479 +/- 32
P  95.83018                H 11.67  G  0.15   U 10.9  SR
q 6.843425685 +/- 3.3    Q 35.03897233 +/- 200
From 3 observations 2026 Sept. 4 (61.4 min); mean residual 0".00
Residuals in arcseconds: 
260904 F51  .00   .00     260904 F51  .00   .01-    260904 F51  .00   .00     

Ephemerides (geocentric):
Date (UTC) HH   RA             Dec           delta  r     elong  mag " sig PA
---- --------  ------------   ------------  ------ ------ -----  --- --------
2026 09 05 11  01 14 14.856   -07 59 53.23  6.5006 7.3548 145.6 20.5 86.3  93
2026 09 05 12  01 14 14.401   -07 59 59.85  6.5002 7.3548 145.7 20.5 90.5  93
2026 09 05 13  01 14 13.945   -08 00 06.48  6.4998 7.3547 145.7 20.5 94.6  93
2026 09 05 14  01 14 13.489   -08 00 13.10  6.4994 7.3546 145.7 20.5 98.8  92
2026 09 05 15  01 14 13.032   -08 00 19.73  6.4990 7.3545 145.8 20.5  103  92
2026 09 05 16  01 14 12.574   -08 00 26.36  6.4986 7.3544 145.8 20.5  107  92
2026 09 05 17  01 14 12.115   -08 00 32.99  6.4982 7.3544 145.9 20.5  112  92
2026 09 05 18  01 14 11.656   -08 00 39.61  6.4978 7.3543 145.9 20.5  116  91
2026 09 05 19  01 14 11.197   -08 00 46.24  6.4974 7.3542 145.9 20.5  120  91
2026 09 05 20  01 14 10.736   -08 00 52.88  6.4970 7.3541 146.0 20.5  125  91
2026 09 05 21  01 14 10.275   -08 00 59.51  6.4966 7.3540 146.0 20.5  129  91
2026 09 05 22  01 14 09.813   -08 01 06.14  6.4962 7.3540 146.0 20.5  134  91
2026 09 05 23  01 14 09.351   -08 01 12.77  6.4958 7.3539 146.1 20.4  139  90
2026 09 06 00  01 14 08.888   -08 01 19.41  6.4954 7.3538 146.1 20.4  143  90
2026 09 06 01  01 14 08.424   -08 01 26.04  6.4950 7.3537 146.2 20.4  148  90
2026 09 06 02  01 14 07.960   -08 01 32.68  6.4946 7.3536 146.2 20.4  153  90
2026 09 06 03  01 14 07.494   -08 01 39.31  6.4942 7.3536 146.2 20.4  158  89
2026 09 06 04  01 14 07.029   -08 01 45.95  6.4938 7.3535 146.3 20.4  163  89
2026 09 06 05  01 14 06.562   -08 01 52.59  6.4934 7.3534 146.3 20.4  168  89
2026 09 06 06  01 14 06.095   -08 01 59.23  6.4930 7.3533 146.3 20.4  173  89
2026 09 06 07  01 14 05.627   -08 02 05.87  6.4926 7.3532 146.4 20.4  178  89
2026 09 06 08  01 14 05.159   -08 02 12.51  6.4922 7.3532 146.4 20.4  183  89
2026 09 06 09  01 14 04.690   -08 02 19.15  6.4918 7.3531 146.5 20.4  188  88
2026 09 06 10  01 14 04.220   -08 02 25.79  6.4914 7.3530 146.5 20.4  194  88
2026 09 06 11  01 14 03.750   -08 02 32.44  6.4910 7.3529 146.5 20.4  199  88
2026 09 06 12  01 14 03.279   -08 02 39.08  6.4906 7.3528 146.6 20.4  205  88
2026 09 06 13  01 14 02.807   -08 02 45.72  6.4902 7.3528 146.6 20.4  210  88
2026 09 06 14  01 14 02.334   -08 02 52.37  6.4898 7.3527 146.6 20.4  216  87
2026 09 06 15  01 14 01.861   -08 02 59.02  6.4894 7.3526 146.7 20.4  222  87
2026 09 06 16  01 14 01.388   -08 03 05.66  6.4890 7.3525 146.7 20.4  228  87
2026 09 06 17  01 14 00.913   -08 03 12.31  6.4886 7.3524 146.8 20.4  234  87
2026 09 06 18  01 14 00.438   -08 03 18.96  6.4882 7.3524 146.8 20.4  240  87
2026 09 06 19  01 13 59.962   -08 03 25.61  6.4878 7.3523 146.8 20.4  247  86
2026 09 06 20  01 13 59.486   -08 03 32.26  6.4874 7.3522 146.9 20.4  253  86
2026 09 06 21  01 13 59.009   -08 03 38.91  6.4871 7.3521 146.9 20.4  260  86
2026 09 06 22  01 13 58.531   -08 03 45.56  6.4867 7.3520 146.9 20.4  267  86
2026 09 06 23  01 13 58.053   -08 03 52.21  6.4863 7.3520 147.0 20.4  273  86
2026 09 07 00  01 13 57.574   -08 03 58.86  6.4859 7.3519 147.0 20.4  281  86
2026 09 07 01  01 13 57.094   -08 04 05.51  6.4855 7.3518 147.1 20.4  288  85
2026 09 07 02  01 13 56.614   -08 04 12.17  6.4851 7.3517 147.1 20.4  295  85
2026 09 07 03  01 13 56.133   -08 04 18.82  6.4847 7.3516 147.1 20.4  303  85
2026 09 07 04  01 13 55.651   -08 04 25.48  6.4843 7.3516 147.2 20.4  311  85
2026 09 07 05  01 13 55.169   -08 04 32.13  6.4839 7.3515 147.2 20.4  319  85
2026 09 07 06  01 13 54.686   -08 04 38.79  6.4835 7.3514 147.3 20.4  327  84
2026 09 07 07  01 13 54.203   -08 04 45.45  6.4832 7.3513 147.3 20.4  335  84
2026 09 07 08  01 13 53.718   -08 04 52.10  6.4828 7.3512 147.3 20.4  344  84
2026 09 07 09  01 13 53.234   -08 04 58.76  6.4824 7.3512 147.4 20.4  353  84
2026 09 07 10  01 13 52.748   -08 05 05.42  6.4820 7.3511 147.4 20.4  362  84